This is the latest recevied weather packets stored in our database for station/object KO4APQ. If no packets are shown the sender has not sent any weather packets the latest 10 day(s).
| Time | Temp. | Humidity | Pressure | Rain* | Wind** | Luminosity | Snow |
|---|---|---|---|---|---|---|---|
| 1777655621 | 17.22° C | 49% | 1015.5 hPa | 0 mm | - | 424 W/m² | - |
| 1777655317 | 17.22° C | 50% | 1015.3 hPa | 0 mm | - | 428 W/m² | - |
| 1777655014 | 17.22° C | 47% | 1015.3 hPa | 0 mm | - | 446 W/m² | - |
| 1777654712 | 17.22° C | 50% | 1015.4 hPa | 0 mm | - | 470 W/m² | - |
| 1777654410 | 16.67° C | 48% | 1015.6 hPa | 0 mm | - | 438 W/m² | - |
| 1777654107 | 17.22° C | 50% | 1015.6 hPa | 0 mm | - | 448 W/m² | - |
| 1777653805 | 17.22° C | 48% | 1015.7 hPa | 0 mm | - | 439 W/m² | - |
| 1777653500 | 16.67° C | 50% | 1015.6 hPa | 0 mm | - | 395 W/m² | - |
| 1777653198 | 16.67° C | 48% | 1015.6 hPa | 0 mm | - | 414 W/m² | - |
| 1777652894 | 16.67° C | 49% | 1015.7 hPa | 0 mm | - | 417 W/m² | - |
| 1777652591 | 16.67° C | 49% | 1015.8 hPa | 0 mm | - | 397 W/m² | - |
| 1777652288 | 16.67° C | 50% | 1015.7 hPa | 0 mm | - | 407 W/m² | - |
| 1777651985 | 16.67° C | 50% | 1015.7 hPa | 0 mm | - | 432 W/m² | - |
| 1777651681 | 16.67° C | 49% | 1015.7 hPa | 0 mm | - | 354 W/m² | - |
| 1777651378 | 16.67° C | 48% | 1015.7 hPa | 0 mm | - | 404 W/m² | - |
| 1777651075 | 16.67° C | 48% | 1015.8 hPa | 0 mm | - | 471 W/m² | - |
| 1777650772 | 16.67° C | 48% | 1015.8 hPa | 0 mm | - | 443 W/m² | - |
| 1777650469 | 16.67° C | 47% | 1015.9 hPa | 0 mm | - | 691 W/m² | - |
| 1777650166 | 16.67° C | 46% | 1016.2 hPa | 0 mm | - | 516 W/m² | - |
| 1777649863 | 16.67° C | 47% | 1016.3 hPa | 0 mm | - | 720 W/m² | - |
| 1777649562 | 16.67° C | 50% | 1016.1 hPa | 0 mm | - | 826 W/m² | - |
| 1777649257 | 16.67° C | 48% | 1016.3 hPa | 0 mm | - | 771 W/m² | - |
| 1777648954 | 16.67° C | 50% | 1016.6 hPa | 0 mm | - | 562 W/m² | - |
| 1777648651 | 16.11° C | 50% | 1016.5 hPa | 0 mm | - | 573 W/m² | - |
| 1777648347 | 16.11° C | 52% | 1016.2 hPa | 0 mm | - | 533 W/m² | - |
* Rain latest hour (hover to see other rain measurements)
** Current wind speed in m/s (hover to see current wind gust speed)